Regional Weather Roundup
Issued by NWS

Home | Current Version | Previous Version | Graphics & Text | Print | Product List | Glossary Off
Versions: 1 2 3 4 5 6 7 8 9 10 11 12 13 14 15 16 17 18 19 20 21 22 23 24 25 26 27 28 29 30 31 32 33 34 35 36 37 38 39 40 41 42 43 44 45 46 47 48 49 50

880
ASUS43 KMKX 281800
RWRWI

WISCONSIN REGIONAL WEATHER ROUNDUP
NATIONAL WEATHER SERVICE MILWAUKEE/SULLIVAN WI
100 PM CDT SAT MAY 28 2016

NOTE: "FAIR" INDICATES FEW OR NO CLOUDS BELOW 12,000 FEET WITH NO
SIGNIFICANT WEATHER AND/OR OBSTRUCTIONS TO VISIBILITY.

WIZ001-002-006>008-014>016-023>028-281900-
NORTHWEST WISCONSIN

CITY           SKY/WX    TMP DP  RH WIND       PRES   REMARKS
SUPERIOR ARPT  CLOUDY    51  49  93 N6        29.79F
ASHLAND        CLOUDY    60  54  80 N5        29.78F
6HR MIN TEMP:  49; 6HR MAX TEMP:  60;

HAYWARD        CLOUDY    67  61  81 CALM      29.77S
6HR MIN TEMP:  56; 6HR MAX TEMP:  67; 6HR PCP:  0.01;

SIREN          CLOUDY    64  56  76 CALM      29.77F
CUMBERLAND     CLOUDY    63  59  88 CALM      29.78S
RICE LAKE      CLOUDY    67  62  84 W5        29.78F
CHETEK         CLOUDY    69  64  84 CALM      29.76F
LADYSMITH      CLOUDY    71  65  81 CALM      29.77F
EAU CLAIRE     CLOUDY    73  63  70 W8        29.75S
MENOMONIE      CLOUDY    71  70  98 SE3       29.77S
NEW RICHMOND   CLOUDY    67  63  87 NW3       29.77F
OSCEOLA        CLOUDY    64  64 100 CALM      29.81R
$$

WIZ003>005-009-010-017-018-281900-
NORTH CENTRAL WISCONSIN

CITY           SKY/WX    TMP DP  RH WIND       PRES   REMARKS
MANITOWISH WTR NOT AVBL
ARBOR VITAE    LGT RAIN  69  65  87 SE5       29.77F
WOODRUFF       LGT RAIN  69  65  87 SE5       29.77F
RHINELANDER    LGT RAIN  68  65  90 S6        29.78F FOG
6HR MIN TEMP:  67; 6HR MAX TEMP:  69; 6HR PCP:  0.43;

EAGLE RIVER    RAIN      68  65  90 SE5       29.78F
LAND O LAKES   RAIN      69  65  87 NE3       29.79F
PHILLIPS       CLOUDY    70  65  84 CALM      29.75F
TOMAHAWK       CLOUDY    66  65  94 CALM      29.77F FOG
MEDFORD        CLOUDY    68  67  98 S3        29.76S
MERRILL        CLOUDY    70  68  94 S9        29.77S
$$

WIZ029-030-035-036-043>047-281900-
CENTRAL WISCONSIN

CITY           SKY/WX    TMP DP  RH WIND       PRES   REMARKS
WAUSAU         CLOUDY    75  65  70 S14G26    29.76R
6HR MIN TEMP:  68; 6HR MAX TEMP:  75; 6HR PCP:  0.18;

MOSINEE        CLOUDY    72  66  83 S15G23    29.79R
MARSHFIELD     PTSUNNY   74  66  76 SW14      29.77R
6HR MIN TEMP:  68; 6HR MAX TEMP:  74; 6HR PCP:  0.14;

STEVENS POINT  CLOUDY    71  64  79 S16       29.80S
WAUPACA        CLOUDY    75  67  76 S13G18    29.82R
WAUTOMA        CLOUDY    75  64  68 SW18G26   29.82S
6HR MIN TEMP:  67; 6HR MAX TEMP:  76; 6HR PCP: TRACE;

WISC RAPIDS    PTSUNNY   77  63  61 SW16G25   29.80S
6HR MIN TEMP:  68; 6HR MAX TEMP:  77; 6HR PCP:  0.04;

CAMP DOUGLAS   NOT AVBL
$$

WIZ011>013-019>022-031-037>040-048>050-281900-
NORTHEAST WISCONSIN

CITY           SKY/WX    TMP DP  RH WIND       PRES   REMARKS
ANTIGO         CLOUDY    69  67  91 S15       29.80S
SHAWANO        CLOUDY    76  66  72 S9G18     29.80S
OCONTO         CLOUDY    73  73 100 S8        29.81S
STURGEON BAY   NOT AVBL
GREEN BAY      PTSUNNY   76  65  68 S22G31    29.81F
6HR MIN TEMP:  69; 6HR MAX TEMP:  76;

MANITOWOC      NOT AVBL
APPLETON       PTSUNNY   75  63  64 SW17G24   29.81S
CLINTONVILLE   CLOUDY    73  63  68 SW18G26   29.81R
OSHKOSH        CLOUDY    76  66  71 SW13G23   29.82S
6HR MIN TEMP:  69; 6HR MAX TEMP:  76;

$$

WIZ032>034-041-042-053>061-281900-
SOUTHWEST WISCONSIN

CITY           SKY/WX    TMP DP  RH WIND       PRES   REMARKS
LA CROSSE      CLOUDY    75  64  68 S12       29.78S
6HR MIN TEMP:  66; 6HR MAX TEMP:  75; 6HR PCP: TRACE;

SPARTA         PTSUNNY   74  65  74 SW8G16    29.80R
VIROQUA        CLOUDY    72  63  73 S16       29.83R
BOSCOBEL       PTSUNNY   77  61  57 SW13G18   29.82S
6HR MIN TEMP:  67; 6HR MAX TEMP:  79; 6HR PCP: TRACE;

PRAIRIE DU CHI MOSUNNY   75  61  61 SE6       29.81S
PLATTEVILLE    PTSUNNY   76  67  71 SW15      29.84F
$$

WIZ056-057-062-063-064-067-068-281900-
SOUTH CENTRAL WISCONSIN

CITY           SKY/WX    TMP DP  RH WIND       PRES   REMARKS
REEDSBURG      PTSUNNY   74  65  72 SW16G26   29.83R
BARABOO/DELLS  PTSUNNY   75  62  64 SW17G23   29.82S
LONE ROCK      NOT AVBL
MINERAL POINT  PTSUNNY   77  64  65 SW17      29.84S
MADISON        PTSUNNY   79  64  60 S21G26    29.83S HX  81
6HR MIN TEMP:  69; 6HR MAX TEMP:  79;

MIDDLETON      MOSUNNY   79  65  62 S10       29.84S HX  81
WATERTOWN      CLOUDY    77  67  70 S17G24    29.86R
MONROE         PTSUNNY   77  63  61 S22G31    29.86S
JANESVILLE     MOSUNNY   81  64  57 S20G26    29.87S HX  82
$$

WIZ051-052-058>065-066-070>072-281900-
SOUTHEAST WISCONSIN

CITY           SKY/WX    TMP DP  RH WIND       PRES   REMARKS
MILWAUKEE      CLOUDY    77  64  64 S18G26    29.88S
6HR MIN TEMP:  69; 6HR MAX TEMP:  77;

WAUKESHA       CLOUDY    73  64  73 S9        29.89S
MILWAUKEE/TIMM PTSUNNY   77  63  61 S16G24    29.88S
RACINE         CLOUDY    77  62  59 S21G29    29.91S
6HR MIN TEMP:  63; 6HR MAX TEMP:  78;

BURLINGTON     CLOUDY    75  64  69 S10G23    29.89S
KENOSHA        CLOUDY    76  63  64 S18G28    29.90S
6HR MIN TEMP:  68; 6HR MAX TEMP:  77;

FOND DU LAC    CLOUDY    76  66  71 S24G30    29.84R
6HR MIN TEMP:  70; 6HR MAX TEMP:  76;

SHEBOYGAN      CLOUDY    75  66  73 S9        29.86R
6HR MIN TEMP:  64; 6HR MAX TEMP:  76;

WEST BEND      CLOUDY    75  63  64 SW15G21   29.86S
JUNEAU         CLOUDY    75  67  75 S17G28    29.87R
$$

LSZ147-162-281900-
LAKE SUPERIOR

STATION/POSITION TIME  TEMP    WIND        PRES    WAVE
                       AIR SEA DIR/SP/G            HT/PER
                 (UTC) (F)     (DEG/KT/KT) (MB)    (FT/S)
W MID LAKE BUOY  1650   41 38   40/  8/  8 1009.1F   1/ 4
DEVILS ISLAND    1700   45     280/  6/  8 1009.4S
SAXON HARBOR     1700   51      40/  1/  4 1008.8S
$$

LMZ867-665-643>646-281900-
LAKE MICHIGAN

STATION/POSITION TIME  TEMP    WIND        PRES    WAVE
                       AIR SEA DIR/SP/G            HT/PER
                 (UTC) (F)     (DEG/KT/KT) (MB)    (FT/S)
CHAMBERS ISLAND  1700   70     150/  7/ 12 1010.2S
N MID LAKE BUOY  1650   54 46  190/ 16/ 17 1011.2R   2/ 5
NORTHPORT PIER   1700   60     150/ 13/ 17 1010.8S
SISTER BAY       1720   68     160/ 14/ 17   N/A
ALGOMA LAKESHORE 1717          200/  9/ 11   N/A
KEWAUNEE LAKESHO 1700   54     180/ 12/ 14 1010.5R
SHEBOYGAN LAKESH 1700   58     170/ 24/ 26 1011.2S
PORT WASHINGTON  1700   62     190/  8/ 10 1012.5
S MID LAKE BUOY  1650   57 50  160/ 14/ 16 1013.1R   2/ 3
KENOSHA   LAKESH 1700   60     170/ 13/ 17 1012.5R
$$

TC  - TEMPERATURE IN CELSIUS
VSB - VISIBILITY IN STATUTE MILES
WCI - WIND CHILL INDEX
HX  - HEAT INDEX





USA.gov is the U.S. government's official web portal to all federal, state and local government web resources and services.